[[{"header":{"parameterUnit":"m.s-1","parameterCategory":1,"la1":30.2991,"la2":30.254,"lo1":-89.0895,"lo2":-89.0444,"dy":0.0017,"dx":0.0017,"nx":28,"ny":28,"refTime":"2026-02-03T09:00:00:Z","depth":0,"parameterNumber":2,"parameterNumberName":"U-component_of_WINDS"},"data":[0,0,0,0,0,0,0,0,0,0,0,0,0,0,0,0,0,0,0,0,0,0,0,0,0,0,0,0,0,0,0,0,0,0,0,0,0,0,0,0,0,0,0,0,0,0,0,0,0,0,0,0,0,0,0,0,0,0,1.3954,1.3955,0,1.4011,1.4012,1.4012,1.4059,1.4059,1.406,1.406,1.4117,1.4118,1.4119,0,0,0,0,0,0,0,0,0,0,0,0,0,1.3886,1.3887,1.3954,1.3955,1.3955,1.4011,1.4012,1.4012,1.4059,1.4059,1.406,1.4061,1.4117,1.4118,1.4119,0,0,0,0,0,0,0,0,0,0,0,0,0,1.3926,1.3887,1.3954,1.3985,1.3989,1.4011,1.4012,1.4013,1.4059,1.4059,1.406,1.4061,1.4116,1.4118,1.4119,1.4114,0,0,1.4124,1.4125,0,0,0,0,0,0,0,0,1.3924,1.3929,1.398,1.3983,1.3987,1.4029,1.4008,1.4047,1.4058,1.4032,1.406,1.4061,1.4087,1.4091,1.41,1.4117,1.4119,1.4124,1.4125,1.4126,1.4126,0,0,0,0,0,0,0,1.3921,1.3926,1.3976,1.3981,1.3985,1.3997,1.4003,1.4016,1.4054,1.4034,1.4038,1.4044,1.4089,1.4098,1.4102,1.412,1.4124,1.4126,1.4127,1.4127,1.4139,1.4139,0,0,0,0,0,0,1.3913,1.3924,1.3975,1.3978,1.3957,1.3997,1.4005,1.4014,1.4055,1.4061,1.4043,1.4046,1.4095,1.41,1.4104,1.4103,1.4126,1.4127,1.4128,1.414,1.4139,1.4138,0,0,0,0,0,0,1.3912,1.3917,1.3972,1.3952,1.396,1.3998,1.4008,1.4015,1.4025,1.4061,1.4068,1.4046,1.4096,1.4101,1.4112,1.4105,1.4128,1.4129,1.4141,1.414,1.4139,1.4099,0,0,0,0,0,0,1.391,1.3917,1.3915,1.3952,1.3961,1.3979,1.4008,1.4016,1.4027,1.4031,1.4066,1.4072,1.4097,1.411,1.4114,1.4108,1.4131,1.4141,1.414,1.4139,1.4101,1.4097,1.4093,0,0,0,0,0,1.3907,1.39,1.3914,1.392,1.3959,1.3979,1.3984,1.4014,1.4027,1.4026,1.405,1.4071,1.4105,1.411,1.4115,1.411,1.4142,1.414,1.4139,1.4103,1.4098,1.4093,0,0,0,0,0,0,1.386,1.3905,1.3922,1.3927,1.3949,1.3987,1.3986,1.4007,1.4025,1.4028,1.4063,1.4071,1.4078,1.4095,1.4099,1.4109,1.4127,1.4126,1.4097,1.4093,1.4089,1.4085,1.4132,0,0,0,0,0,1.385,1.3863,1.3902,1.3902,1.3913,1.3947,1.3957,1.3978,1.4002,1.4011,1.4036,1.4058,1.4075,1.4084,1.4101,1.4104,1.4113,1.4103,1.4099,1.4095,1.4095,1.41,1.4097,1.4134,1.4134,1.4134,0,0,1.383,1.3857,1.3862,1.3894,1.3913,1.3926,1.3955,1.3966,1.3976,1.4013,1.4025,1.4044,1.4072,1.4079,1.4084,1.4093,1.4087,1.4094,1.4091,1.4092,1.4098,1.4095,1.4092,1.4133,1.4133,1.4133,0,0,1.38,1.3821,1.3825,1.3845,1.3875,1.3899,1.3899,1.3935,1.395,1.3963,1.3992,1.4004,1.403,1.405,1.4063,1.4044,1.4065,1.4048,1.4027,1.4032,1.4029,1.4027,1.4022,1.402,1.4047,1.4047,1.4047,0,1.3771,1.3792,1.3824,1.3835,1.3849,1.3885,1.389,1.3907,1.394,1.395,1.396,1.3997,1.4017,1.4031,1.4027,1.4035,1.4039,1.4044,1.4027,1.4025,1.4024,1.4019,1.4017,1.4045,1.4045,1.4045,1.4046,0,1.3756,1.377,1.3769,1.3803,1.3817,1.3824,1.3859,1.3869,1.3889,1.3912,1.3926,1.3953,1.3977,1.3982,1.4001,1.3999,1.4004,1.4021,1.404,1.4017,1.4014,1.4013,1.4042,1.4043,1.4043,1.4044,0,0,1.3697,1.375,1.375,1.3766,1.3803,1.3815,1.3825,1.385,1.3859,1.3881,1.3891,1.3914,1.3931,1.3946,1.3968,1.3972,1.3958,1.3988,1.3989,1.3983,1.396,1.3948,1.3946,1.3972,1.3972,1.3972,1.3958,0,1.3674,1.3695,1.3726,1.3736,1.3751,1.3786,1.3795,1.3819,1.3841,1.3857,1.3881,1.3898,1.3917,1.3927,1.3933,1.3958,1.3954,1.396,1.3983,1.3983,1.3976,1.3944,1.3931,1.3917,1.3957,1.3957,1.3957,0,1.365,1.3672,1.3685,1.3724,1.3731,1.3738,1.3765,1.3779,1.3808,1.3824,1.3842,1.3867,1.3881,1.3897,1.3918,1.3921,1.3933,1.3947,1.3947,1.3951,1.3969,1.3948,1.3913,1.3911,1.3955,1.3955,1.3955,0,1.3608,1.3641,1.3654,1.3667,1.3711,1.3717,1.3735,1.3765,1.3779,1.3802,1.3812,1.3836,1.3849,1.3867,1.3899,1.3908,1.3916,1.3935,1.3931,1.393,1.3931,1.3931,1.3899,1.3937,1.3937,1.3937,1.3937,0,1.358,1.3587,1.3636,1.3644,1.3653,1.3689,1.3697,1.3719,1.3746,1.3759,1.3791,1.3802,1.3842,1.3859,1.3884,1.3898,1.3903,1.3918,1.3924,1.3915,1.3914,1.3924,1.3926,1.3936,1.3937,1.3937,1.3937,0,1.3534,1.3568,1.3584,1.3626,1.3637,1.3642,1.3678,1.3688,1.3712,1.3729,1.3735,1.3774,1.3796,1.3829,1.386,1.3876,1.3888,1.3897,1.3878,1.3882,1.3877,1.3878,1.3851,1.385,1.3887,1.3887,1.3886,0,1.3515,1.3521,1.3565,1.3577,1.3595,1.3613,1.3628,1.3664,1.3679,1.3714,1.3719,1.3744,1.3765,1.3799,1.383,1.3855,1.3866,1.3855,1.387,1.3862,1.3868,1.3868,1.387,1.3852,1.3851,1.3851,1.385,0,1.3477,1.3494,1.3515,1.3542,1.3559,1.3582,1.3606,1.3614,1.3656,1.3671,1.3694,1.3711,1.3744,1.3769,1.3799,1.3818,1.3842,1.3846,1.3846,1.3838,1.3827,1.3835,1.387,1.3846,1.3847,1.3847,1.3847,1.3847,1.3446,1.3454,1.3487,1.3509,1.3532,1.3555,1.3567,1.3594,1.3614,1.3645,1.3665,1.3688,1.3719,1.3761,1.378,1.3799,1.3809,1.3809,1.381,1.381,1.3807,1.3824,1.3804,1.3805,1.3805,1.3805,1.3805,0,1.3411,1.3435,1.3455,1.349,1.3508,1.3529,1.3558,1.3572,1.3592,1.3619,1.3641,1.3669,1.3693,1.3727,1.3755,1.3764,1.3775,1.377,1.377,1.3775,1.3796,1.3794,1.376,1.376,1.376,1.376,1.376,1.376,1.3396,1.3412,1.3433,1.3461,1.3485,1.3508,1.3523,1.3545,1.3567,1.3598,1.3619,1.3641,1.3672,1.3702,1.3726,1.3736,1.3745,1.3737,1.375,1.3769,1.3773,1.3777,1.3775,1.3738,1.3738,1.3727,1.3727,1.3727]},{"header":{"parameterUnit":"m.s-1","parameterCategory":1,"la1":30.2991,"la2":30.254,"lo1":-89.0895,"lo2":-89.0444,"dy":0.0017,"dx":0.0017,"nx":28,"ny":28,"refTime":"2026-02-03T09:00:00:Z","depth":0,"parameterNumber":3,"parameterNumberName":"V-component_of_WINDS"},"data":[0,0,0,0,0,0,0,0,0,0,0,0,0,0,0,0,0,0,0,0,0,0,0,0,0,0,0,0,0,0,0,0,0,0,0,0,0,0,0,0,0,0,0,0,0,0,0,0,0,0,0,0,0,0,0,0,0,0,3.6925,3.6925,0,3.6883,3.6883,3.6882,3.6908,3.6909,3.6911,3.6912,3.6867,3.6864,3.6862,0,0,0,0,0,0,0,0,0,0,0,0,0,3.7029,3.7027,3.6925,3.6925,3.6924,3.6883,3.6883,3.6882,3.6908,3.6909,3.6911,3.6912,3.6867,3.6865,3.6862,0,0,0,0,0,0,0,0,0,0,0,0,0,3.6985,3.7026,3.6925,3.6932,3.6933,3.6883,3.6883,3.6882,3.6908,3.6909,3.6911,3.6913,3.6868,3.6865,3.6861,3.6802,0,0,3.6851,3.6849,0,0,0,0,0,0,0,0,3.6987,3.6981,3.6932,3.6932,3.6932,3.6903,3.6903,3.6855,3.6907,3.6917,3.6912,3.6914,3.6877,3.6873,3.6861,3.68,3.6798,3.685,3.6848,3.6847,3.6846,0,0,0,0,0,0,0,3.699,3.6983,3.6909,3.6931,3.6931,3.6938,3.6933,3.6894,3.6887,3.6916,3.6918,3.6913,3.6877,3.6864,3.686,3.6798,3.685,3.6847,3.6845,3.6844,3.669,3.6689,0,0,0,0,0,0,3.6993,3.6985,3.691,3.6907,3.6965,3.6934,3.693,3.691,3.6888,3.6886,3.6911,3.6914,3.6869,3.6864,3.6858,3.679,3.6847,3.6843,3.6841,3.6692,3.669,3.6688,0,0,0,0,0,0,3.6995,3.6986,3.6912,3.6947,3.6938,3.6931,3.6909,3.6908,3.6895,3.6884,3.6883,3.6899,3.6871,3.6863,3.6817,3.6789,3.6842,3.6839,3.6695,3.6692,3.6689,3.6652,0,0,0,0,0,0,3.6998,3.6987,3.6964,3.6946,3.6936,3.687,3.6907,3.6906,3.6889,3.6893,3.6872,3.687,3.6871,3.6822,3.6814,3.6785,3.6836,3.6697,3.6693,3.669,3.6656,3.6648,3.6642,0,0,0,0,0,3.7001,3.6954,3.6962,3.6953,3.6907,3.6869,3.6863,3.6866,3.6887,3.6864,3.6858,3.6871,3.6794,3.6817,3.6808,3.6778,3.6699,3.6694,3.669,3.6659,3.665,3.6642,0,0,0,0,0,0,3.6966,3.6951,3.6961,3.6906,3.6889,3.6873,3.6844,3.6855,3.6831,3.6835,3.6839,3.6835,3.6787,3.6777,3.6804,3.6721,3.675,3.6743,3.6729,3.672,3.6713,3.6717,3.6833,0,0,0,0,0,3.6952,3.6923,3.6911,3.6864,3.6855,3.6851,3.6835,3.6839,3.6821,3.6813,3.6803,3.6785,3.6757,3.6738,3.6711,3.6655,3.6652,3.663,3.6623,3.6617,3.6612,3.6584,3.6575,3.6673,3.6673,3.6674,0,0,3.6923,3.6911,3.6892,3.6857,3.6844,3.6814,3.6845,3.681,3.6789,3.6808,3.6764,3.6756,3.6736,3.6686,3.6663,3.6676,3.6584,3.6611,3.6607,3.6605,3.6579,3.6569,3.6561,3.667,3.6671,3.6671,0,0,3.6854,3.6841,3.6802,3.6789,3.677,3.6769,3.676,3.6743,3.6739,3.6696,3.6711,3.6685,3.6635,3.6622,3.6608,3.6538,3.655,3.6529,3.6493,3.6466,3.6458,3.6451,3.6429,3.642,3.6524,3.6523,3.6523,0,3.6819,3.6775,3.678,3.6746,3.6731,3.6749,3.6711,3.6698,3.667,3.666,3.6676,3.6617,3.6604,3.6552,3.6536,3.6523,3.6514,3.6531,3.6459,3.6452,3.6446,3.6424,3.6415,3.6521,3.6521,3.6522,3.6522,0,3.6734,3.6703,3.6674,3.665,3.6631,3.6595,3.6596,3.6577,3.6583,3.658,3.6537,3.6524,3.6496,3.6484,3.6489,3.6433,3.6443,3.6459,3.6487,3.6434,3.6414,3.6405,3.6518,3.6519,3.6519,3.652,0,0,3.664,3.6622,3.6611,3.6602,3.6584,3.656,3.6525,3.65,3.6485,3.6466,3.6438,3.6397,3.6413,3.6398,3.6402,3.6378,3.6327,3.6398,3.6397,3.6387,3.6268,3.6257,3.6247,3.6335,3.6333,3.6332,3.627,0,3.6572,3.6512,3.6518,3.6462,3.6435,3.6453,3.6423,3.6409,3.6406,3.6383,3.638,3.6352,3.6374,3.6365,3.6343,3.6338,3.6303,3.6342,3.631,3.6309,3.6316,3.6236,3.6224,3.6166,3.6262,3.6261,3.626,0,3.6483,3.6464,3.6406,3.6396,3.6384,3.6357,3.6336,3.6313,3.6299,3.6299,3.6284,3.6293,3.6259,3.6288,3.6243,3.627,3.6257,3.6253,3.6251,3.6249,3.6282,3.6233,3.6147,3.6139,3.6247,3.6248,3.6249,0,3.6423,3.6383,3.6344,3.6335,3.6321,3.6302,3.6295,3.6283,3.6268,3.6249,3.624,3.6217,3.6205,3.6187,3.6191,3.6211,3.6145,3.6174,3.6145,3.6145,3.6131,3.6132,3.6043,3.612,3.612,3.6121,3.6121,0,3.6347,3.6311,3.6317,3.6293,3.6254,3.6261,3.6223,3.6218,3.6208,3.6184,3.6197,3.6174,3.6179,3.6157,3.6159,3.6123,3.6116,3.6116,3.6117,3.6116,3.6116,3.6108,3.6113,3.6118,3.6119,3.6119,3.612,0,3.6273,3.6275,3.6234,3.6226,3.6223,3.6195,3.6188,3.6166,3.6165,3.6135,3.6128,3.6127,3.6101,3.6103,3.6073,3.6075,3.6031,3.6036,3.6037,3.6038,3.601,3.6013,3.5913,3.5902,3.5985,3.5985,3.5984,0,3.6224,3.6198,3.6188,3.6174,3.6166,3.6142,3.6129,3.6136,3.6121,3.6104,3.6084,3.6061,3.6042,3.6001,3.5998,3.5976,3.5982,3.5949,3.5979,3.5979,3.5984,3.5986,3.5985,3.5943,3.5942,3.5941,3.594,0,3.6139,3.6143,3.6123,3.6104,3.6088,3.6073,3.6059,3.6047,3.6052,3.6035,3.601,3.5996,3.5968,3.5945,3.5925,3.5919,3.5931,3.5931,3.5924,3.5922,3.5925,3.5925,3.6022,3.5933,3.5934,3.5935,3.5935,3.5935,3.6078,3.6057,3.6047,3.6025,3.6017,3.6005,3.5985,3.5983,3.5963,3.5941,3.5946,3.5919,3.5908,3.5883,3.5875,3.5854,3.5866,3.5855,3.5852,3.585,3.5848,3.5927,3.585,3.5851,3.5851,3.5851,3.5851,0,3.5996,3.5991,3.5971,3.5954,3.5937,3.5951,3.5938,3.5923,3.5899,3.5889,3.5871,3.5844,3.5823,3.5819,3.5799,3.5783,3.5789,3.5778,3.578,3.5779,3.5837,3.5846,3.5774,3.5774,3.5774,3.5774,3.5774,3.5774,3.5951,3.5916,3.5919,3.5881,3.5877,3.5852,3.5844,3.5833,3.5825,3.5795,3.5778,3.5776,3.5769,3.5749,3.573,3.573,3.5722,3.571,3.5712,3.5766,3.5774,3.5781,3.579,3.5708,3.5708,3.5656,3.5655,3.5655]}]]